BAW83 EGLL-DGAA

Flight info

Callsign BAW83
Flight time N/A
Altitude 35000
Route MODMI M185 MID L612 BOGNA UL612 VEULE DCT DEKOD DCT DISAK DCT DIRMO DCT ETAMO DCT ADEKA DCT MOKDI DCT MEN DCT BADAM DCT KANIG DCT KENAS DCT POS N855 GENIO DCT MOGIL UB31 ZEM/N0481F360 UZ333 KAHIL UB726 GHA/N0487F350 UA615 ATCHA/N0483F370 UA615 TMS UA604 EREBO/N0493F360 DCT MIGNI/N0488F380 DCT ABALA DCT IPUTA DCT TATAT DCT KILMO DCT LITEX LITEX1B
Aircraft B77W/H-SDE1E2E3FGHIJ2J3J4J5M1RWXY/LB1D1

Departure

Time N/A
Airport London Heathrow Airport (EGLL)

Arrival

Time 2026-04-20 17:49
Airport Kotoka International Airport (DGAA)
Time Latitude Longitude Altitude Speed Heading
2026-04-20 16:50 11.70822 2.59664 34686 ft 479 kts 210°
2026-04-20 16:50 11.67775 2.58268 34688 ft 478 kts 210°
2026-04-20 16:50 11.61705 2.55488 34680 ft 479 kts 210°
2026-04-20 16:51 11.55606 2.52696 34688 ft 479 kts 210°
2026-04-20 16:51 11.49536 2.49919 34688 ft 480 kts 210°
2026-04-20 16:52 11.43418 2.47121 34686 ft 481 kts 210°
2026-04-20 16:52 11.37330 2.44338 34689 ft 481 kts 210°
2026-04-20 16:53 11.31209 2.41542 34690 ft 481 kts 210°
2026-04-20 16:53 11.25108 2.38755 34676 ft 481 kts 209°
2026-04-20 16:54 11.18995 2.35965 34686 ft 482 kts 209°
2026-04-20 16:54 11.12878 2.33173 34687 ft 483 kts 209°
2026-04-20 16:55 11.06751 2.30378 34687 ft 483 kts 209°
2026-04-20 16:55 11.00696 2.27375 34684 ft 479 kts 216°
2026-04-20 16:56 10.95317 2.23491 34688 ft 472 kts 224°
2026-04-20 16:56 10.90278 2.19218 34690 ft 472 kts 224°
2026-04-20 16:57 10.85238 2.14952 34689 ft 473 kts 224°
2026-04-20 16:57 10.80140 2.10669 34699 ft 473 kts 224°
2026-04-20 16:58 10.75079 2.06434 34692 ft 473 kts 224°
2026-04-20 16:58 10.70000 2.02189 34696 ft 473 kts 224°
2026-04-20 16:59 10.64931 1.97952 34700 ft 472 kts 224°
2026-04-20 16:59 10.59859 1.93714 34698 ft 472 kts 224°
2026-04-20 17:00 10.52253 1.87359 34706 ft 472 kts 224°
2026-04-20 17:01 10.47177 1.83123 34720 ft 472 kts 224°
2026-04-20 17:01 10.42093 1.78882 34716 ft 473 kts 224°
2026-04-20 17:02 10.37029 1.74658 34713 ft 473 kts 223°
2026-04-20 17:02 10.31932 1.70409 34719 ft 473 kts 224°
2026-04-20 17:03 10.26858 1.66181 34730 ft 473 kts 223°
2026-04-20 17:03 10.21796 1.61965 34733 ft 473 kts 223°
2026-04-20 17:04 10.16692 1.57715 34735 ft 474 kts 223°
2026-04-20 17:04 10.11582 1.53461 34731 ft 476 kts 223°
2026-04-20 17:05 10.06456 1.49198 34739 ft 478 kts 223°
2026-04-20 17:05 10.01283 1.44896 34736 ft 480 kts 223°
2026-04-20 17:06 9.96134 1.40617 34735 ft 479 kts 223°
2026-04-20 17:06 9.90977 1.36333 34734 ft 478 kts 223°
2026-04-20 17:07 9.85847 1.32074 34732 ft 476 kts 223°
2026-04-20 17:07 9.81597 1.28545 34781 ft 476 kts 223°
2026-04-20 17:08 9.75626 1.23589 34810 ft 477 kts 223°
2026-04-20 17:08 9.71319 1.20016 34821 ft 479 kts 223°
2026-04-20 17:09 9.66170 1.15746 34823 ft 481 kts 222°
2026-04-20 17:09 9.60971 1.11437 34807 ft 481 kts 223°
2026-04-20 17:10 9.55811 1.07161 34778 ft 479 kts 223°
2026-04-20 17:10 9.50680 1.02912 34767 ft 477 kts 223°
2026-04-20 17:11 9.45152 0.99107 34751 ft 481 kts 212°
2026-04-20 17:11 9.39076 0.96304 34755 ft 485 kts 205°
2026-04-20 17:12 9.32733 0.93866 34748 ft 487 kts 204°
2026-04-20 17:12 9.26418 0.91445 34746 ft 488 kts 204°
2026-04-20 17:13 9.20049 0.88972 34749 ft 489 kts 205°
2026-04-20 17:13 9.13727 0.86500 34750 ft 490 kts 205°
2026-04-20 17:14 9.07343 0.84002 34732 ft 491 kts 204°
2026-04-20 17:14 9.00971 0.81510 34750 ft 493 kts 204°
2026-04-20 17:15 8.94559 0.79005 34748 ft 495 kts 204°
2026-04-20 17:15 8.88151 0.76503 34748 ft 497 kts 204°
2026-04-20 17:16 8.81698 0.73985 34743 ft 497 kts 204°
2026-04-20 17:16 8.75247 0.71468 34743 ft 498 kts 204°
2026-04-20 17:17 8.68771 0.68943 34743 ft 497 kts 204°
2026-04-20 17:17 8.62340 0.66435 34748 ft 497 kts 204°
2026-04-20 17:18 8.55852 0.63907 34743 ft 497 kts 204°
2026-04-20 17:18 8.49416 0.61400 34751 ft 497 kts 204°
2026-04-20 17:19 8.42976 0.58891 34749 ft 497 kts 204°
2026-04-20 17:19 8.36487 0.56365 34741 ft 498 kts 204°
2026-04-20 17:20 8.30065 0.53865 34743 ft 497 kts 204°
2026-04-20 17:20 8.23582 0.51343 34741 ft 497 kts 204°
2026-04-20 17:21 8.17127 0.48833 34747 ft 496 kts 204°
2026-04-20 17:21 8.10699 0.46334 34747 ft 496 kts 204°
2026-04-20 17:22 8.04275 0.43838 34735 ft 496 kts 204°
2026-04-20 17:22 7.97817 0.41329 34742 ft 496 kts 204°
2026-04-20 17:23 7.91390 0.38831 34740 ft 497 kts 204°
2026-04-20 17:23 7.84912 0.36316 34743 ft 498 kts 204°
2026-04-20 17:24 7.78469 0.33816 34742 ft 499 kts 204°
2026-04-20 17:24 7.71956 0.31289 34747 ft 499 kts 203°
2026-04-20 17:25 7.65486 0.28781 34741 ft 499 kts 204°
2026-04-20 17:25 7.59005 0.26267 34749 ft 499 kts 203°
2026-04-20 17:26 7.52535 0.23758 34744 ft 499 kts 203°
2026-04-20 17:26 7.46069 0.21253 34746 ft 499 kts 203°
2026-04-20 17:27 7.39559 0.18732 34745 ft 499 kts 203°
2026-04-20 17:27 7.33182 0.16265 34348 ft 476 kts 203°
2026-04-20 17:27 7.30122 0.15084 33271 ft 464 kts 203°
2026-04-20 17:28 7.27127 0.13925 31417 ft 469 kts 204°
2026-04-20 17:28 7.23992 0.12706 29600 ft 495 kts 204°
2026-04-20 17:28 7.20741 0.11441 28414 ft 502 kts 203°
2026-04-20 17:28 7.17480 0.10178 27716 ft 497 kts 202°
2026-04-20 17:29 7.14323 0.08960 27429 ft 483 kts 202°
2026-04-20 17:29 7.11213 0.07761 27319 ft 472 kts 202°
2026-04-20 17:29 7.08188 0.06592 27052 ft 467 kts 202°
2026-04-20 17:29 7.05129 0.05409 26400 ft 469 kts 202°
2026-04-20 17:30 7.02080 0.04230 25767 ft 466 kts 202°
2026-04-20 17:30 6.99047 0.03056 25131 ft 464 kts 202°
2026-04-20 17:30 6.96067 0.01904 24490 ft 461 kts 202°
2026-04-20 17:30 6.93065 0.00742 23848 ft 459 kts 201°
2026-04-20 17:31 6.90114 -0.00399 23190 ft 457 kts 201°
2026-04-20 17:31 6.87128 -0.01552 22452 ft 455 kts 200°
2026-04-20 17:31 6.84240 -0.02668 21853 ft 437 kts 200°
2026-04-20 17:31 6.81463 -0.03741 20966 ft 418 kts 200°
2026-04-20 17:32 6.78784 -0.04777 19841 ft 409 kts 199°
2026-04-20 17:32 6.76091 -0.05816 18892 ft 418 kts 199°
2026-04-20 17:32 6.73389 -0.06858 18453 ft 417 kts 199°
2026-04-20 17:32 6.70711 -0.07893 18335 ft 405 kts 199°
2026-04-20 17:33 6.68146 -0.08885 18002 ft 387 kts 199°
2026-04-20 17:33 6.65656 -0.09846 17514 ft 382 kts 199°
2026-04-20 17:33 6.63136 -0.10539 17028 ft 377 kts 182°
2026-04-20 17:33 6.60549 -0.10389 16590 ft 368 kts 170°
2026-04-20 17:34 6.58015 -0.10075 16145 ft 370 kts 171°
2026-04-20 17:34 6.55445 -0.09795 15687 ft 373 kts 172°
2026-04-20 17:34 6.52845 -0.09526 15234 ft 374 kts 172°
2026-04-20 17:34 6.50290 -0.09271 14754 ft 362 kts 172°
2026-04-20 17:35 6.47840 -0.09030 14312 ft 352 kts 171°
2026-04-20 17:35 6.45414 -0.08790 13872 ft 345 kts 171°
2026-04-20 17:35 6.43047 -0.08556 13406 ft 338 kts 171°
2026-04-20 17:35 6.40722 -0.08325 12963 ft 338 kts 171°
2026-04-20 17:36 6.38344 -0.08087 12534 ft 348 kts 171°
2026-04-20 17:36 6.35908 -0.07842 12088 ft 354 kts 171°
2026-04-20 17:36 6.33466 -0.07599 11642 ft 349 kts 171°
2026-04-20 17:36 6.31113 -0.07368 11174 ft 337 kts 171°
2026-04-20 17:37 6.28783 -0.07138 10759 ft 336 kts 170°
2026-04-20 17:37 6.26451 -0.06906 10504 ft 333 kts 170°
2026-04-20 17:37 6.24187 -0.06682 10350 ft 326 kts 170°
2026-04-20 17:37 6.21956 -0.06462 10183 ft 311 kts 170°
2026-04-20 17:38 6.19910 -0.06263 10040 ft 288 kts 169°
2026-04-20 17:38 6.17940 -0.06067 9944 ft 281 kts 169°
2026-04-20 17:38 6.16007 -0.05872 9832 ft 276 kts 169°
2026-04-20 17:38 6.14082 -0.05680 9546 ft 278 kts 169°
2026-04-20 17:39 6.12156 -0.05486 9215 ft 278 kts 170°
2026-04-20 17:39 6.10283 -0.05304 8917 ft 266 kts 169°
2026-04-20 17:39 6.08452 -0.05122 8617 ft 266 kts 169°
2026-04-20 17:39 6.06585 -0.04932 8313 ft 276 kts 169°
2026-04-20 17:40 6.04665 -0.04740 7966 ft 278 kts 170°
2026-04-20 17:40 6.02737 -0.04552 7611 ft 275 kts 170°
2026-04-20 17:40 6.00874 -0.04371 7271 ft 267 kts 170°
2026-04-20 17:40 5.99045 -0.04169 6943 ft 262 kts 170°
2026-04-20 17:41 5.97208 -0.03993 6654 ft 267 kts 171°
2026-04-20 17:41 5.95335 -0.03818 6311 ft 270 kts 171°
2026-04-20 17:41 5.93501 -0.03643 5965 ft 264 kts 172°
2026-04-20 17:41 5.91683 -0.03830 5616 ft 265 kts 198°
2026-04-20 17:42 5.90011 -0.04570 5353 ft 266 kts 201°
2026-04-20 17:42 5.88292 -0.05295 5055 ft 268 kts 200°
2026-04-20 17:42 5.86594 -0.05995 4732 ft 256 kts 200°
2026-04-20 17:42 5.84993 -0.06654 4422 ft 239 kts 200°
2026-04-20 17:43 5.83523 -0.07259 4150 ft 222 kts 200°
2026-04-20 17:43 5.82149 -0.07823 3918 ft 205 kts 200°
2026-04-20 17:43 5.80835 -0.08339 3728 ft 198 kts 199°
2026-04-20 17:43 5.79568 -0.08849 3536 ft 196 kts 200°
2026-04-20 17:44 5.78330 -0.09359 3382 ft 183 kts 201°
2026-04-20 17:44 5.77193 -0.09830 3242 ft 172 kts 200°
2026-04-20 17:44 5.76128 -0.10270 3061 ft 161 kts 200°
2026-04-20 17:44 5.75120 -0.10687 2857 ft 149 kts 201°
2026-04-20 17:45 5.74197 -0.11069 2691 ft 139 kts 200°
2026-04-20 17:45 5.73286 -0.11445 2571 ft 147 kts 201°
2026-04-20 17:45 5.72339 -0.11836 2394 ft 145 kts 202°
2026-04-20 17:45 5.71428 -0.12213 2238 ft 140 kts 202°
2026-04-20 17:46 5.70524 -0.12586 2030 ft 142 kts 203°
2026-04-20 17:46 5.69630 -0.12957 1824 ft 136 kts 201°
2026-04-20 17:46 5.68750 -0.13320 1660 ft 138 kts 202°
2026-04-20 17:46 5.67856 -0.13691 1478 ft 140 kts 202°
2026-04-20 17:47 5.66967 -0.14058 1305 ft 135 kts 203°
2026-04-20 17:47 5.66117 -0.14409 1118 ft 134 kts 204°
2026-04-20 17:47 5.65235 -0.14774 987 ft 137 kts 202°
2026-04-20 17:47 5.64355 -0.15149 850 ft 135 kts 202°
2026-04-20 17:48 5.63475 -0.15504 588 ft 138 kts 201°
2026-04-20 17:48 5.62592 -0.15879 464 ft 139 kts 201°
2026-04-20 17:48 5.61681 -0.16249 278 ft 138 kts 200°
2026-04-20 17:48 5.60845 -0.16591 234 ft 119 kts 200°
2026-04-20 17:49 5.60217 -0.16848 221 ft 71 kts 201°
2026-04-20 17:49 5.59945 -0.16989 218 ft 22 kts 223°
2026-04-20 17:49 5.59841 -0.17113 220 ft 19 kts 233°
2026-04-20 17:49 5.59831 -0.17200 222 ft 12 kts 299°
2026-04-20 17:50 5.59867 -0.17274 222 ft 10 kts 293°
2026-04-20 17:50 5.59877 -0.17298 220 ft 0 kts 293°